Mankato, MN

9:53 AM CDT on August 21, 2019 (GMT -0500)
Mankato Regional

Weather History for KMKT - May, 2019

Change the Weather History Date:

Wednesday, May 1, 2019

  Actual Average Record
Temperature  
Mean Temperature 42 °F -  
Max Temperature 46 °F 63 °F 80 °F (2001)
Min Temperature 39 °F 42 °F 28 °F (1997)
Degree Days  
Heating Degree Days 22    
Moisture  
Dew Point 39 °F    
Average Humidity 88    
Maximum Humidity 97    
Minimum Humidity 79    
Precipitation  
Precipitation 0.10 in - - ()
Sea Level Pressure  
Sea Level Pressure 30.07 in    
Wind  
Wind Speed 10 mph (NNE)    
Max Wind Speed 16 mph    
Max Gust Speed -    
Visibility 10 miles    
Events Rain    
Averages and records for this station are not official NWS values.
T = Trace of Precipitation, MM = Missing Value Source: NWS Daily Summary

Daily Weather History Graph

Daily Weather History Graph

Search for Another Location

Airport or City:

Astronomy

May. 01, 2019 Rise Set
Actual Time 6:07 AM CDT 8:19 PM CDT
Civil Twilight 5:35 AM CDT 8:51 PM CDT
Nautical Twilight 4:56 AM CDT 9:30 PM CDT
Astronomical Twilight 4:12 AM CDT 10:14 PM CDT
Moon 5:03 AM CDT (5/1) 4:58 PM CDT (5/1)
Length of Visible Light 15h 15m
Length of Day
14h 12m
Waning Crescent, 10% of the Moon is Illuminated
May 1
Waning Crescent
May 4
New
May 11
First Quarter
May 18
Full
May 26
Last Quarter

Hourly Weather History & Observations

Time (CDT) Temp. Windchill Dew Point Humidity Pressure Visibility Wind Dir Wind Speed Gust Speed Precip Events Conditions
12:56 AM 39.9 °F 32.9 °F 39.0 °F 97% 30.09 in 6.0 mi NE 11.5 mph - 0.03 in Rain Light Rain
1:56 AM 39.9 °F 32.9 °F 39.0 °F 97% 30.08 in 9.0 mi NE 11.5 mph - 0.02 in Rain Light Rain
2:56 AM 39.9 °F 32.1 °F 37.9 °F 93% 30.03 in 10.0 mi NE 13.8 mph - 0.03 in Rain Rain
3:56 AM 39.9 °F 31.4 °F 37.9 °F 93% 30.01 in 10.0 mi NE 16.1 mph - 0.02 in   Overcast
4:56 AM 39.9 °F 33.4 °F 37.9 °F 93% 30.02 in 10.0 mi ENE 10.4 mph - N/A   Overcast
5:56 AM 39.0 °F 31.4 °F 36.0 °F 89% 30.02 in 10.0 mi NE 12.7 mph - N/A   Overcast
6:17 AM 39.2 °F 32.0 °F 37.4 °F 93% 30.00 in 10.0 mi NNE 11.5 mph - N/A   Overcast
6:56 AM 39.0 °F 31.8 °F 36.0 °F 89% 30.04 in 10.0 mi NE 11.5 mph - N/A   Overcast
7:16 AM 39.2 °F 33.0 °F 37.4 °F 93% 30.01 in 10.0 mi NNE 9.2 mph - N/A   Overcast
7:56 AM 39.0 °F 31.4 °F 37.0 °F 93% 30.03 in 10.0 mi NE 12.7 mph - N/A   Overcast
8:56 AM 39.9 °F 32.9 °F 37.0 °F 89% 30.05 in 10.0 mi NE 11.5 mph - N/A   Overcast
9:07 AM 39.2 °F 33.0 °F 37.4 °F 93% 30.02 in 10.0 mi NE 9.2 mph - N/A   Overcast
9:56 AM 41.0 °F 34.7 °F 37.0 °F 86% 30.06 in 10.0 mi NNE 10.4 mph - N/A   Overcast
10:56 AM 42.1 °F 36.6 °F 37.9 °F 85% 30.07 in 10.0 mi NE 9.2 mph - N/A   Overcast
11:56 AM 42.1 °F 36.6 °F 37.9 °F 85% 30.07 in 10.0 mi North 9.2 mph - N/A   Overcast
12:56 PM 43.0 °F 38.8 °F 39.0 °F 86% 30.07 in 10.0 mi North 6.9 mph - N/A   Overcast
1:56 PM 44.1 °F 38.6 °F 39.0 °F 82% 30.06 in 10.0 mi North 10.4 mph - N/A   Overcast
2:56 PM 44.1 °F 39.0 °F 39.9 °F 85% 30.08 in 10.0 mi North 9.2 mph - N/A   Overcast
3:56 PM 44.1 °F 40.1 °F 39.9 °F 85% 30.09 in 10.0 mi North 6.9 mph - N/A   Overcast
4:21 PM 44.6 °F 43.1 °F 39.2 °F 81% 30.06 in 10.0 mi NE 3.5 mph - N/A   Overcast
4:56 PM 46.0 °F 43.9 °F 39.9 °F 79% 30.08 in 10.0 mi NE 4.6 mph - N/A   Overcast
5:56 PM 46.0 °F 44.8 °F 39.9 °F 79% 30.09 in 10.0 mi NE 3.5 mph - N/A   Overcast
6:56 PM 46.0 °F - 39.9 °F 79% 30.10 in 10.0 mi Calm Calm - 0.00 in Rain Light Rain
7:56 PM 45.0 °F 43.5 °F 39.9 °F 82% 30.11 in 10.0 mi North 3.5 mph - 0.00 in   Overcast
8:56 PM 45.0 °F - 41.0 °F 86% 30.12 in 10.0 mi Calm Calm - N/A   Overcast
9:56 PM 45.0 °F 42.6 °F 41.0 °F 86% 30.13 in 10.0 mi NNE 4.6 mph - 0.00 in Rain Light Rain
10:56 PM 44.1 °F - 41.0 °F 89% 30.14 in 10.0 mi Calm Calm - 0.00 in Rain Light Rain
11:56 PM 44.1 °F 42.5 °F 42.1 °F 93% 30.12 in 10.0 mi NNW 3.5 mph - 0.00 in Rain Light Rain